• în Republica Moldova
  • Lista ţărilor
  • Pe 7 zile
  • Temperatura apei
  • Hartă satelitară
  • Meteo pe hartă
  • Widget-uri
  • user-avatar
    Intrare

    Meteo pe oră la Yulara

    Astăzi, 13 Decembrie, Joi

    Timp Temperatura Precipitaţii Vânt Presiune Umiditate
    00:00 +29°C° 0 mm 13 m/s 714 mmHg 45%
    01:00 +28°C° 0 mm 13 m/s 714 mmHg 45%
    02:00 +27°C° 0 mm 12 m/s 714 mmHg 45%
    03:00 +26°C° 0 mm 9 m/s 715 mmHg 45%
    04:00 +26°C° 0 mm 9 m/s 715 mmHg 44%
    05:00 +24°C° 0 mm 8 m/s 716 mmHg 44%
    06:00 +23°C° 0 mm 8 m/s 716 mmHg 44%
    07:00 +24°C° 0 mm 8 m/s 716 mmHg 40%
    08:00 +26°C° 0 mm 8 m/s 717 mmHg 36%
    09:00 +27°C° 0 mm 8 m/s 717 mmHg 33%
    10:00 +29°C° 0 mm 8 m/s 717 mmHg 28%
    11:00 +32°C° 0 mm 8 m/s 717 mmHg 24%
    12:00 +34°C° 0 mm 8 m/s 716 mmHg 19%
    13:00 +35°C° 0 mm 7 m/s 716 mmHg 17%
    14:00 +36°C° 0 mm 7 m/s 716 mmHg 15%
    15:00 +38°C° 0 mm 7 m/s 715 mmHg 13%
    16:00 +36°C° 0 mm 7 m/s 715 mmHg 13%
    17:00 +35°C° 0 mm 8 m/s 715 mmHg 13%
    18:00 +35°C° 0 mm 8 m/s 715 mmHg 12%
    19:00 +33°C° 0 mm 8 m/s 715 mmHg 14%
    20:00 +31°C° 0 mm 8 m/s 716 mmHg 15%
    21:00 +29°C° 0 mm 8 m/s 716 mmHg 17%
    22:00 +28°C° 0 mm 9 m/s 716 mmHg 19%
    23:00 +26°C° 0 mm 9 m/s 716 mmHg 21%

    Mâine, 14 Decembrie, Vineri

    Timp Temperatura Precipitaţii Vânt Presiune Umiditate
    00:00 +24°C° 0 mm 9 m/s 716 mmHg 23%
    01:00 +23°C° 0 mm 9 m/s 716 mmHg 26%
    02:00 +22°C° 0 mm 8 m/s 716 mmHg 29%
    03:00 +21°C° 0 mm 8 m/s 715 mmHg 33%
    04:00 +20°C° 0 mm 8 m/s 716 mmHg 34%
    05:00 +18°C° 0 mm 7 m/s 716 mmHg 36%
    06:00 +18°C° 0 mm 7 m/s 716 mmHg 38%
    07:00 +20°C° 0 mm 7 m/s 716 mmHg 34%
    08:00 +21°C° 0 mm 6 m/s 717 mmHg 31%
    09:00 +22°C° 0 mm 6 m/s 717 mmHg 27%
    10:00 +24°C° 0 mm 6 m/s 716 mmHg 23%
    11:00 +27°C° 0 mm 5 m/s 716 mmHg 18%
    12:00 +29°C° 0 mm 5 m/s 715 mmHg 14%
    13:00 +30°C° 0 mm 5 m/s 715 mmHg 13%
    14:00 +32°C° 0 mm 5 m/s 714 mmHg 12%
    15:00 +33°C° 0 mm 5 m/s 714 mmHg 11%
    16:00 +33°C° 0 mm 5 m/s 714 mmHg 11%
    17:00 +32°C° 0 mm 6 m/s 713 mmHg 11%
    18:00 +32°C° 0 mm 6 m/s 713 mmHg 12%
    19:00 +30°C° 0 mm 6 m/s 714 mmHg 13%
    20:00 +28°C° 0 mm 6 m/s 714 mmHg 14%
    21:00 +27°C° 0 mm 6 m/s 714 mmHg 16%
    22:00 +26°C° 0 mm 6 m/s 714 mmHg 17%
    23:00 +25°C° 0 mm 5 m/s 714 mmHg 19%

    Poimâine, 15 Decembrie, Sâmbătă

    Timp Temperatura Precipitaţii Vânt Presiune Umiditate
    00:00 +23°C° 0 mm 5 m/s 714 mmHg 21%
    01:00 +22°C° 0 mm 5 m/s 714 mmHg 22%
    02:00 +22°C° 0 mm 4 m/s 713 mmHg 24%
    03:00 +21°C° 0 mm 4 m/s 713 mmHg 25%
    04:00 +20°C° 0 mm 4 m/s 713 mmHg 26%
    05:00 +20°C° 0 mm 4 m/s 713 mmHg 27%
    06:00 +20°C° 0 mm 3 m/s 714 mmHg 29%
    07:00 +21°C° 0 mm 3 m/s 714 mmHg 27%
    08:00 +24°C° 0 mm 3 m/s 714 mmHg 24%
    09:00 +25°C° 0 mm 3 m/s 714 mmHg 22%
    10:00 +27°C° 0 mm 3 m/s 714 mmHg 19%
    11:00 +29°C° 0 mm 2 m/s 714 mmHg 16%
    12:00 +30°C° 0 mm 2 m/s 713 mmHg 13%
    13:00 +32°C° 0 mm 2 m/s 713 mmHg 12%
    14:00 +34°C° 0 mm 2 m/s 712 mmHg 10%
    15:00 +35°C° 0 mm 2 m/s 711 mmHg 9%
    16:00 +35°C° 0 mm 2 m/s 711 mmHg 9%
    17:00 +36°C° 0 mm 2 m/s 711 mmHg 8%
    18:00 +36°C° 0 mm 2 m/s 711 mmHg 8%
    19:00 +35°C° 0 mm 2 m/s 712 mmHg 9%
    20:00 +33°C° 0 mm 3 m/s 712 mmHg 10%
    21:00 +31°C° 0 mm 3 m/s 712 mmHg 12%
    22:00 +30°C° 0 mm 3 m/s 712 mmHg 14%
    23:00 +29°C° 0 mm 3 m/s 712 mmHg 16%

    16 Decembrie, Duminică

    Timp Temperatura Precipitaţii Vânt Presiune Umiditate
    00:00 +29°C° 0 mm 3 m/s 713 mmHg 17%
    01:00 +28°C° 0 mm 3 m/s 712 mmHg 20%
    02:00 +27°C° 0 mm 4 m/s 712 mmHg 23%
    03:00 +27°C° 0 mm 4 m/s 712 mmHg 25%
    04:00 +26°C° 0 mm 4 m/s 712 mmHg 27%
    05:00 +26°C° 0 mm 5 m/s 713 mmHg 29%
    06:00 +26°C° 0 mm 5 m/s 713 mmHg 31%
    07:00 +28°C° 0 mm 5 m/s 713 mmHg 26%
    08:00 +32°C° 0 mm 6 m/s 713 mmHg 22%
    09:00 +34°C° 0 mm 6 m/s 714 mmHg 17%
    10:00 +36°C° 0 mm 5 m/s 713 mmHg 15%
    11:00 +38°C° 0 mm 4 m/s 713 mmHg 12%
    12:00 +39°C° 0 mm 3 m/s 713 mmHg 10%
    13:00 +40°C° 0 mm 2 m/s 712 mmHg 9%
    14:00 +41°C° 0 mm 1 m/s 712 mmHg 9%
    15:00 +39°C° 0 mm 0 m/s 711 mmHg 9%
    16:00 +42°C° 0 mm 1 m/s 711 mmHg 9%
    17:00 +42°C° 0 mm 1 m/s 711 mmHg 9%
    18:00 +42°C° 0 mm 2 m/s 711 mmHg 9%
    19:00 +42°C° 0 mm 3 m/s 711 mmHg 10%
    20:00 +41°C° 0 mm 4 m/s 712 mmHg 11%
    21:00 +39°C° 0 mm 5 m/s 712 mmHg 12%
    22:00 +39°C° 0 mm 6 m/s 712 mmHg 12%
    23:00 +38°C° 0 mm 6 m/s 712 mmHg 13%

    17 Decembrie, Luni

    Timp Temperatura Precipitaţii Vânt Presiune Umiditate
    00:00 +36°C° 0 mm 7 m/s 712 mmHg 14%
    01:00 +35°C° 0 mm 7 m/s 711 mmHg 15%
    02:00 +34°C° 0 mm 7 m/s 711 mmHg 16%
    03:00 +33°C° 0 mm 7 m/s 711 mmHg 16%
    04:00 +33°C° 0 mm 6 m/s 711 mmHg 17%
    05:00 +32°C° 0 mm 5 m/s 711 mmHg 18%
    06:00 +32°C° 0 mm 5 m/s 712 mmHg 18%
    07:00 +34°C° 0 mm 6 m/s 712 mmHg 16%
    08:00 +38°C° 0 mm 7 m/s 713 mmHg 13%
    09:00 +41°C° 0 mm 8 m/s 713 mmHg 10%
    10:00 +44°C° 0 mm 7 m/s 713 mmHg 10%
    11:00 +45°C° 0 mm 7 m/s 712 mmHg 10%
    12:00 +47°C° 0 mm 7 m/s 712 mmHg 9%
    13:00 +47°C° 0 mm 7 m/s 711 mmHg 10%
    14:00 +47°C° 0 mm 7 m/s 710 mmHg 10%
    15:00 +47°C° 0 mm 7 m/s 710 mmHg 10%
    16:00 +47°C° 0 mm 6 m/s 710 mmHg 10%
    17:00 +46°C° 0 mm 6 m/s 710 mmHg 11%
    18:00 +46°C° 0 mm 5 m/s 710 mmHg 11%
    19:00 +45°C° 0 mm 5 m/s 710 mmHg 12%
    20:00 +43°C° 0 mm 4 m/s 711 mmHg 13%
    21:00 +42°C° 0 mm 4 m/s 711 mmHg 14%
    22:00 +41°C° 0 mm 4 m/s 711 mmHg 15%
    23:00 +41°C° 0 mm 4 m/s 711 mmHg 15%

    18 Decembrie, Marţi

    Timp Temperatura Precipitaţii Vânt Presiune Umiditate
    00:00 +40°C° 0 mm 4 m/s 710 mmHg 16%
    01:00 +40°C° 0 mm 4 m/s 710 mmHg 16%
    02:00 +38°C° 0 mm 4 m/s 710 mmHg 16%
    03:00 +37°C° 0 mm 5 m/s 710 mmHg 16%
    04:00 +37°C° 0 mm 5 m/s 710 mmHg 16%
    05:00 +36°C° 0 mm 6 m/s 711 mmHg 16%
    06:00 +35°C° 0 mm 7 m/s 711 mmHg 16%
    07:00 +38°C° 0 mm 7 m/s 712 mmHg 14%
    08:00 +39°C° 0 mm 7 m/s 712 mmHg 13%
    09:00 +40°C° 0 mm 8 m/s 713 mmHg 12%
    10:00 +42°C° 0 mm 6 m/s 713 mmHg 11%
    11:00 +43°C° 0 mm 5 m/s 713 mmHg 10%
    12:00 +45°C° 0 mm 4 m/s 712 mmHg 9%
    13:00 +45°C° 0 mm 4 m/s 712 mmHg 9%
    14:00 +47°C° 0 mm 5 m/s 712 mmHg 9%
    15:00 +48°C° 0 mm 5 m/s 711 mmHg 8%
    16:00 +47°C° 0 mm 5 m/s 712 mmHg 8%
    17:00 +47°C° 0 mm 5 m/s 712 mmHg 8%
    18:00 +47°C° 0 mm 5 m/s 712 mmHg 8%
    19:00 +45°C° 0 mm 5 m/s 712 mmHg 9%
    20:00 +42°C° 0 mm 5 m/s 713 mmHg 11%
    21:00 +41°C° 0 mm 5 m/s 713 mmHg 12%
    22:00 +40°C° 0 mm 6 m/s 713 mmHg 12%
    23:00 +39°C° 0 mm 6 m/s 713 mmHg 13%
    Arată mai mult